Regional Weather Roundup
Issued by NWS Sioux Falls, SD

Home | Current Version | Previous Version | Graphics & Text | Print | Product List | Glossary Off
Versions: 1 2 3 4 5 6 7 8 9 10 11 12 13 14 15 16 17 18 19 20 21 22 23 24 25 26 27 28 29 30 31 32 33 34 35 36 37 38 39 40 41 42 43 44 45 46 47 48 49 50

000
ASUS43 KFSD 290910
RWRFSD

WEATHER ROUNDUP FOR SE SOUTH DAKOTA/SW MINNESOTA/NW IOWA
NATIONAL WEATHER SERVICE SIOUX FALLS SD
400 AM CDT MON AUG 29 2016

NOTE: "FAIR" INDICATES FEW OR NO CLOUDS BELOW 12,000 FEET WITH NO
SIGNIFICANT WEATHER AND OR OBSTRUCTIONS TO VISIBILITY.


SDZ038>040-050-052>070-291000-
SOUTHEAST SOUTH DAKOTA

CITY           SKY/WX    TMP DP  RH WIND       PRES   REMARKS
BROOKINGS        N/A    N/A N/A N/A MISG        N/A
CHAMBERLAIN    CLEAR     72  64  74 SW5       30.07R
HURON          CLEAR     71  69  93 S9        30.05R
MADISON        FAIR      66  66 100 SW7       30.12R
MITCHELL       CLEAR     69  67  93 SE9       30.08R
SIOUX FALLS    CLEAR     70  32  24 S13       30.13R
WINNER         FAIR      73  62  68 S18       30.08R
YANKTON        CLEAR     70  64  83 S3        30.10S
$$

MNZ071-072-080-081-089-090-097-098-291000-
SOUTHWEST MINNESOTA

CITY           SKY/WX    TMP DP  RH WIND       PRES   REMARKS
FAIRMONT       CLEAR     63  62  97 SW5       30.16R
JACKSON          N/A     66  63  88 S7        30.16R
LUVERNE        CLEAR     63  59  88 S3        30.15R
MARSHALL       CLEAR     68  65  90 S7        30.11R
MONTEVIDEO     CLEAR     70  68  94 SW8       30.09F
REDWOOD FALLS  CLEAR     68  64  87 S10       30.10F
TRACY          CLEAR     68  65  90 S8        30.13R
WINDOM         CLEAR     68  63  83 S10       30.15R
WORTHINGTON    CLEAR     65  63  93 S12       30.16R
$$

IAZ001>003-012>014-020>022-031-032-NEZ013-014-SDZ071-291000-
NORTHWEST IOWA

CITY           SKY/WX    TMP DP  RH WIND       PRES   REMARKS
CHEROKEE       CLOUDY    65  65 100 S3        30.16S
DENISON        CLOUDY    68  66  94 CALM      30.14S
ESTHERVILLE    CLOUDY    63  63 100 S6        30.16R
LE MARS        PTCLDY    68  64  88 SE8G15    30.15F
ORANGE CITY    CLOUDY    66  64  94 SE5       30.16R
SHELDON        CLOUDY    64  64 100 S7        30.15R
SIOUX CITY     CLOUDY    68  65  90 SE6       30.14S
SPENCER        CLOUDY    65  63  93 S5        30.17R
STORM LAKE     PTCLDY    66  64  94 S6        30.17S
$$

ABBREVIATIONS USED IN REMARKS
   TC - TEMPERATURE IN CELSIUS
  WCI - WIND CHILL INDEX
   HX - HEAT INDEX
  VSB - VISIBILITY





USA.gov is the U.S. government's official web portal to all federal, state and local government web resources and services.